| time (UTC) | temp F | wind direction | speed MPH | gust MPH | rain 1hr in | rain 24hr in | rain mn in | humidity % | barometer mb |
| 20260508060535 | 46 | 0.0 | 1.0 | 0.00 | 0.00 | 0.00 | 90 | 1012.3 | |
| 20260508055531 | 46 | 0.0 | 0.0 | 0.00 | 0.00 | 0.00 | 90 | 1012.1 | |
| 20260508054528 | 46 | 0.0 | 0.0 | 0.00 | 0.00 | 0.00 | 90 | 1012.1 | |
| 20260508053623 | 46 | 0.0 | 0.0 | 0.00 | 0.00 | 0.00 | 90 | 1011.9 | |
| 20260508052618 | 45 | 0.0 | 0.0 | 0.00 | 0.00 | 0.00 | 93 | 1012.0 | |
| 20260508051633 | 45 | 0.0 | 0.0 | 0.00 | 0.00 | 0.00 | 93 | 1011.8 | |
| 20260508050608 | 45 | 0.0 | 0.0 | 0.00 | 0.00 | 0.00 | 93 | 1012.0 | |
| 20260508045603 | 45 | 0.0 | 0.0 | 0.00 | 0.00 | 0.00 | 93 | 1011.9 | |
| 20260508044618 | 45 | 0.0 | 0.0 | 0.00 | 0.00 | 0.00 | 93 | 1011.8 | |
| 20260508043554 | 45 | 0.0 | 0.0 | 0.00 | 0.00 | 0.00 | 92 | 1011.9 | |
| 20260508042610 | 45 | 0.0 | 0.0 | 0.00 | 0.00 | 0.00 | 92 | 1011.9 | |
| 20260508041546 | 45 | 1.0 | 2.0 | 0.00 | 0.00 | 0.00 | 92 | 1011.7 | |
| 20260508040541 | 44 | 0.0 | 2.0 | 0.00 | 0.00 | 0.00 | 91 | 1011.8 | |
| 20260508035536 | 44 | 0.0 | 0.0 | 0.00 | 0.00 | 0.00 | 91 | 1011.9 | |
| 20260508034531 | 44 | 0.0 | 0.0 | 0.00 | 0.00 | 0.00 | 91 | 1011.9 | |
| 20260508033527 | 44 | 0.0 | 0.0 | 0.00 | 0.00 | 0.00 | 90 | 1011.9 | |
| 20260508032523 | 45 | 0.0 | 0.0 | 0.00 | 0.00 | 0.00 | 90 | 1011.9 | |
| 20260508031620 | 45 | 0.0 | 0.0 | 0.00 | 0.00 | 0.00 | 90 | 1011.9 | |
| 20260508030616 | 45 | 0.0 | 0.0 | 0.00 | 0.00 | 0.00 | 89 | 1011.8 | |
| 20260508025712 | 45 | 0.0 | 0.0 | 0.00 | 0.00 | 0.00 | 90 | 1011.8 | |
| 20260508024608 | 44 | 0.0 | 0.0 | 0.00 | 0.00 | 0.00 | 90 | 1011.9 | |
| 20260508023603 | 44 | 0.0 | 0.0 | 0.00 | 0.00 | 0.00 | 90 | 1011.9 | |
| 20260508022558 | 45 | 0.0 | 0.0 | 0.00 | 0.00 | 0.00 | 90 | 1011.9 | |
| 20260508021614 | 45 | 0.0 | 0.0 | 0.00 | 0.00 | 0.00 | 90 | 1011.8 | |
| 20260508020549 | 44 | 0.0 | 0.0 | 0.00 | 0.00 | 0.00 | 89 | 1011.7 | |
| 20260508015545 | 45 | 0.0 | 0.0 | 0.00 | 0.00 | 0.00 | 89 | 1011.7 | |
| 20260508014542 | 44 | 0.0 | 0.0 | 0.00 | 0.00 | 0.00 | 89 | 1011.7 | |
| 20260508013537 | 45 | 0.0 | 0.0 | 0.00 | 0.00 | 0.00 | 89 | 1011.8 | |
| 20260508012552 | 45 | 0.0 | 0.0 | 0.00 | 0.00 | 0.00 | 89 | 1011.8 | |
| 20260508011526 | 45 | 0.0 | 0.0 | 0.00 | 0.00 | 0.00 | 90 | 1011.8 | |
| 20260508010522 | 44 | 0.0 | 0.0 | 0.00 | 0.00 | 0.00 | 88 | 1011.9 | |
| 20260508005516 | 44 | 0.0 | 0.0 | 0.00 | 0.00 | 0.00 | 87 | 1012.0 | |
| 20260508004612 | 45 | 0.0 | 0.0 | 0.00 | 0.00 | 0.00 | 87 | 1012.0 | |
| 20260508003608 | 45 | 0.0 | 0.0 | 0.00 | 0.00 | 0.00 | 86 | 1012.0 | |
| 20260508002604 | 45 | 0.0 | 0.0 | 0.00 | 0.00 | 0.00 | 86 | 1012.1 | |
| 20260508001600 | 45 | 0.0 | 0.0 | 0.00 | 0.00 | 0.00 | 86 | 1012.2 | |
| 20260508000655 | 45 | 0.0 | 0.0 | 0.00 | 0.00 | 0.00 | 84 | 1012.1 | |
| 20260507235710 | 44 | 0.0 | 0.0 | 0.00 | 0.00 | 0.00 | 85 | 1012.3 | |
| 20260507234645 | 44 | 0.0 | 0.0 | 0.00 | 0.00 | 0.00 | 83 | 1012.3 | |
| 20260507233641 | 44 | 0.0 | 0.0 | 0.00 | 0.00 | 0.00 | 83 | 1012.2 | |
| 20260507232637 | 46 | 0.0 | 0.0 | 0.00 | 0.00 | 0.00 | 79 | 1012.2 | |
| 20260507231634 | 46 | 0.0 | 0.0 | 0.00 | 0.00 | 0.00 | 80 | 1012.1 | |
| 20260507230630 | 46 | 0.0 | 0.0 | 0.00 | 0.00 | 0.00 | 80 | 1012.1 | |
| 20260507225626 | 46 | 0.0 | 0.0 | 0.00 | 0.00 | 0.00 | 80 | 1012.0 | |
| 20260507224622 | 45 | 225 | 0.0 | 2.0 | 0.00 | 0.00 | 0.00 | 84 | 1012.0 |
| 20260507223617 | 45 | 0.0 | 0.0 | 0.00 | 0.00 | 0.00 | 83 | 1012.1 | |
| 20260507222612 | 46 | 225 | 0.0 | 2.0 | 0.00 | 0.00 | 0.00 | 79 | 1012.2 |
| 20260507221607 | 46 | 0.0 | 0.0 | 0.00 | 0.00 | 0.00 | 78 | 1012.1 | |
| 20260507220603 | 46 | 0.0 | 0.0 | 0.00 | 0.00 | 0.00 | 78 | 1012.1 | |
| 20260507215559 | 46 | 0.0 | 0.0 | 0.00 | 0.00 | 0.00 | 77 | 1012.1 | |
| 20260507214555 | 47 | 0.0 | 0.0 | 0.00 | 0.00 | 0.00 | 76 | 1012.3 | |
| 20260507213651 | 47 | 0.0 | 0.0 | 0.00 | 0.00 | 0.00 | 75 | 1012.2 | |
| 20260507212645 | 47 | 0.0 | 0.0 | 0.00 | 0.00 | 0.00 | 75 | 1012.1 | |
| 20260507211640 | 48 | 0.0 | 0.0 | 0.00 | 0.00 | 0.00 | 74 | 1012.1 | |
| 20260507210635 | 48 | 331 | 1.0 | 2.0 | 0.00 | 0.00 | 0.00 | 75 | 1011.9 |
| 20260507205630 | 49 | 329 | 2.0 | 4.0 | 0.00 | 0.00 | 0.00 | 75 | 1011.9 |
| 20260507204625 | 49 | 0 | 1.0 | 2.0 | 0.00 | 0.00 | 0.00 | 73 | 1011.9 |
| 20260507203641 | 49 | 205 | 2.0 | 4.0 | 0.00 | 0.00 | 0.00 | 74 | 1011.8 |
| 20260507202617 | 49 | 315 | 2.0 | 4.0 | 0.00 | 0.00 | 0.00 | 74 | 1011.7 |
| 20260507201614 | 50 | 315 | 1.0 | 1.0 | 0.00 | 0.00 | 0.00 | 73 | 1011.5 |
| 20260507200609 | 50 | 86 | 1.0 | 2.0 | 0.00 | 0.00 | 0.00 | 73 | 1011.4 |
| 20260507195604 | 51 | 90 | 1.0 | 3.0 | 0.00 | 0.00 | 0.00 | 71 | 1011.2 |
| 20260507194559 | 51 | 90 | 1.0 | 2.0 | 0.00 | 0.00 | 0.00 | 71 | 1011.3 |
| 20260507193615 | 52 | 90 | 1.0 | 2.0 | 0.00 | 0.00 | 0.00 | 70 | 1011.4 |
| 20260507192550 | 52 | 90 | 2.0 | 2.0 | 0.00 | 0.00 | 0.00 | 70 | 1011.2 |
| 20260507191647 | 53 | 120 | 2.0 | 3.0 | 0.00 | 0.00 | 0.00 | 67 | 1011.3 |
| 20260507190643 | 55 | 0.0 | 0.0 | 0.00 | 0.00 | 0.00 | 63 | 1011.2 | |
| 20260507185639 | 53 | 0.0 | 0.0 | 0.00 | 0.00 | 0.00 | 68 | 1011.1 | |
| 20260507184635 | 53 | 0.0 | 0.0 | 0.00 | 0.00 | 0.00 | 68 | 1011.0 | |
| 20260507183631 | 53 | 0.0 | 0.0 | 0.00 | 0.00 | 0.00 | 68 | 1011.0 | |
| 20260507182626 | 53 | 279 | 1.0 | 2.0 | 0.00 | 0.00 | 0.00 | 68 | 1011.0 |
| 20260507181641 | 53 | 295 | 3.0 | 4.0 | 0.00 | 0.00 | 0.00 | 68 | 1011.1 |
| 20260507180617 | 53 | 275 | 3.0 | 4.0 | 0.00 | 0.00 | 0.00 | 69 | 1010.9 |
| 20260507175613 | 54 | 315 | 2.0 | 4.0 | 0.00 | 0.00 | 0.00 | 70 | 1011.0 |
| 20260507174609 | 53 | 280 | 3.0 | 5.0 | 0.00 | 0.00 | 0.00 | 70 | 1011.0 |
| 20260507173604 | 54 | 282 | 3.0 | 4.0 | 0.00 | 0.00 | 0.00 | 70 | 1011.0 |
| 20260507172559 | 54 | 270 | 2.0 | 3.0 | 0.00 | 0.00 | 0.00 | 70 | 1011.0 |
| 20260507171554 | 56 | 270 | 3.0 | 4.0 | 0.00 | 0.00 | 0.00 | 63 | 1010.9 |
| 20260507170549 | 55 | 0.0 | 2.0 | 0.00 | 0.00 | 0.00 | 64 | 1011.0 | |
| 20260507165644 | 0 | 0.0 | 0.0 | 0.00 | 0.00 | 0.00 | 1010.9 | ||
| 20260507164700 | 0 | 0.0 | 0.0 | 0.00 | 0.00 | 0.00 | 1010.9 | ||
| 20260507163635 | 56 | 293 | 4.0 | 4.0 | 0.00 | 0.00 | 0.00 | 59 | 1010.7 |
| 20260507162631 | 56 | 213 | 6.0 | 8.0 | 0.00 | 0.00 | 0.00 | 58 | 1010.8 |
| 20260507161628 | 56 | 180 | 7.0 | 8.0 | 0.00 | 0.00 | 0.00 | 57 | 1010.8 |
| 20260507160623 | 55 | 180 | 8.0 | 9.0 | 0.00 | 0.00 | 0.00 | 57 | 1010.7 |
| 20260507155618 | 55 | 180 | 4.0 | 9.0 | 0.00 | 0.00 | 0.00 | 58 | 1010.8 |
| 20260507154613 | 55 | 180 | 8.0 | 11.0 | 0.00 | 0.00 | 0.00 | 57 | 1010.8 |
| 20260507153609 | 55 | 180 | 8.0 | 10.0 | 0.00 | 0.00 | 0.00 | 59 | 1010.8 |
| 20260507152604 | 55 | 171 | 7.0 | 10.0 | 0.00 | 0.00 | 0.00 | 59 | 1010.8 |
| 20260507151601 | 55 | 219 | 7.0 | 9.0 | 0.00 | 0.00 | 0.00 | 61 | 1010.9 |
| 20260507150557 | 0 | 0.0 | 0.0 | 0.00 | 0.00 | 0.00 | 1010.9 | ||
| 20260507145553 | 55 | 180 | 4.0 | 4.0 | 0.00 | 0.00 | 0.00 | 63 | 1010.9 |
| 20260507144549 | 55 | 135 | 4.0 | 7.0 | 0.00 | 0.00 | 0.00 | 63 | 1010.9 |
| 20260507143545 | 0 | 0.0 | 0.0 | 0.00 | 0.00 | 0.00 | 1011.0 | ||
| 20260507142640 | 0 | 0.0 | 0.0 | 0.00 | 0.00 | 0.00 | 1011.2 | ||
| 20260507141635 | 0 | 0.0 | 0.0 | 0.00 | 0.00 | 0.00 | 1011.3 | ||
| 20260507140631 | 0 | 0.0 | 0.0 | 0.00 | 0.00 | 0.00 | 1011.3 | ||
| 20260507135626 | 0 | 0.0 | 0.0 | 0.00 | 0.00 | 0.00 | 1011.4 | ||
| 20260507134643 | 0 | 0.0 | 0.0 | 0.00 | 0.00 | 0.00 | 1011.3 | ||
| 20260507133618 | 0 | 0.0 | 0.0 | 0.00 | 0.00 | 0.00 | 1011.3 | ||
| 20260507132613 | 57 | 135 | 8.0 | 11.0 | 0.00 | 0.00 | 0.00 | 60 | 1011.4 |
| 20260507131608 | 55 | 180 | 8.0 | 10.0 | 0.00 | 0.00 | 0.00 | 62 | 1011.5 |
| 20260507130603 | 0 | 0.0 | 0.0 | 0.00 | 0.00 | 0.00 | 1011.5 | ||
| 20260507125617 | 0 | 0.0 | 0.0 | 0.00 | 0.00 | 0.00 | 1011.5 | ||
| 20260507124553 | 0 | 0.0 | 0.0 | 0.00 | 0.00 | 0.00 | 1011.4 | ||
| 20260507123629 | 0 | 0.0 | 0.0 | 0.00 | 0.00 | 0.00 | 1011.4 | ||
| 20260507122545 | 56 | 135 | 5.0 | 7.0 | 0.00 | 0.00 | 0.00 | 60 | 1011.4 |
| 20260507121541 | 0 | 0.0 | 0.0 | 0.00 | 0.00 | 0.00 | 1011.4 | ||
| 20260507120536 | 57 | 180 | 10.0 | 13.0 | 0.00 | 0.00 | 0.00 | 60 | 1011.5 |
| 20260507115631 | 57 | 135 | 7.0 | 8.0 | 0.00 | 0.00 | 0.00 | 59 | 1011.4 |
| 20260507114626 | 57 | 151 | 7.0 | 8.0 | 0.00 | 0.00 | 0.00 | 59 | 1011.4 |
| 20260507113622 | 56 | 158 | 6.0 | 8.0 | 0.00 | 0.00 | 0.00 | 60 | 1011.6 |
| 20260507112618 | 57 | 118 | 5.0 | 8.0 | 0.00 | 0.00 | 0.00 | 60 | 1011.6 |
| 20260507111614 | 56 | 159 | 5.0 | 8.0 | 0.00 | 0.00 | 0.00 | 61 | 1011.7 |
| 20260507110630 | 55 | 130 | 5.0 | 8.0 | 0.00 | 0.00 | 0.00 | 64 | 1011.9 |
| 20260507105606 | 53 | 146 | 5.0 | 7.0 | 0.00 | 0.00 | 0.00 | 67 | 1011.9 |
| 20260507104602 | 53 | 169 | 6.0 | 8.0 | 0.00 | 0.00 | 0.00 | 68 | 1012.1 |
| 20260507103558 | 52 | 156 | 4.0 | 6.0 | 0.00 | 0.00 | 0.00 | 70 | 1012.0 |
| 20260507102613 | 52 | 111 | 1.0 | 4.0 | 0.00 | 0.00 | 0.00 | 70 | 1012.1 |
| 20260507101548 | 52 | 135 | 3.0 | 5.0 | 0.00 | 0.00 | 0.00 | 71 | 1012.1 |
| 20260507100544 | 51 | 135 | 2.0 | 2.0 | 0.00 | 0.00 | 0.00 | 74 | 1012.2 |
| 20260507095540 | 51 | 135 | 3.0 | 4.0 | 0.00 | 0.00 | 0.00 | 75 | 1012.1 |
| 20260507094537 | 50 | 135 | 3.0 | 4.0 | 0.00 | 0.00 | 0.00 | 76 | 1012.0 |
| 20260507093631 | 50 | 96 | 4.0 | 5.0 | 0.00 | 0.00 | 0.00 | 76 | 1012.0 |
| 20260507092626 | 50 | 90 | 2.0 | 3.0 | 0.00 | 0.00 | 0.00 | 78 | 1011.9 |
| 20260507091621 | 49 | 1.0 | 4.0 | 0.00 | 0.00 | 0.00 | 80 | 1011.9 | |
| 20260507090616 | 49 | 293 | 2.0 | 4.0 | 0.00 | 0.00 | 0.00 | 80 | 1012.0 |
| 20260507085611 | 48 | 90 | 1.0 | 2.0 | 0.00 | 0.00 | 0.00 | 81 | 1011.9 |
| 20260507084606 | 48 | 2.0 | 4.0 | 0.00 | 0.00 | 0.00 | 82 | 1012.0 | |
| 20260507083742 | 47 | 90 | 1.0 | 2.0 | 0.00 | 0.00 | 0.00 | 82 | 1012.0 |
| 20260507082559 | 47 | 90 | 2.0 | 3.0 | 0.00 | 0.00 | 0.00 | 83 | 1011.9 |
| 20260507081555 | 46 | 90 | 2.0 | 4.0 | 0.00 | 0.00 | 0.00 | 83 | 1011.9 |
| 20260507080550 | 46 | 90 | 2.0 | 3.0 | 0.00 | 0.00 | 0.00 | 84 | 1011.9 |
| 20260507075545 | 46 | 90 | 1.0 | 3.0 | 0.00 | 0.00 | 0.00 | 84 | 1011.8 |
| 20260507074600 | 46 | 90 | 1.0 | 3.0 | 0.00 | 0.00 | 0.00 | 84 | 1011.8 |
| 20260507073536 | 46 | 90 | 1.0 | 3.0 | 0.00 | 0.00 | 0.00 | 84 | 1011.8 |
| 20260507072612 | 45 | 90 | 1.0 | 2.0 | 0.00 | 0.00 | 0.00 | 90 | 1011.8 |
| 20260507071608 | 45 | 1.0 | 3.0 | 0.00 | 0.00 | 0.00 | 90 | 1011.8 | |
| 20260507070625 | 45 | 90 | 1.0 | 3.0 | 0.00 | 0.00 | 0.00 | 90 | 1011.7 |
| 20260507065620 | 45 | 90 | 1.0 | 3.0 | 0.00 | 0.00 | 0.00 | 90 | 1011.7 |
| 20260507064637 | 44 | 90 | 0.0 | 2.0 | 0.00 | 0.00 | 0.00 | 90 | 1011.6 |
| 20260507063612 | 44 | 122 | 1.0 | 3.0 | 0.00 | 0.00 | 0.00 | 90 | 1011.6 |
| 20260507062607 | 44 | 90 | 0.0 | 3.0 | 0.00 | 0.00 | 0.00 | 90 | 1011.6 |
| 20260507061602 | 44 | 90 | 0.0 | 2.0 | 0.00 | 0.00 | 0.00 | 90 | 1011.5 |